TEVEL2-4

Last updated on Mon Nov 03 2025 00:03:22 GMT+0000 (Coordinated Universal Time)

1 63213U 25052D 25306.45626275 .00018228 00000+0 73066-3 0 9997 2 63213 97.4124 198.6214 0003009 146.1844 213.9586 15.25068015 35448
UTC large
Height (km)
Speed (km/s)
/
Latitude / Longitude
Inclination (degrees)
Orbital Period (minutes)
Azimuth
Elevation
Range (km)
Doppler Factor

Next 0 passes for location: London (51.5072 / 0.1276)

Sorry there are no passes over London.